This demonstration page uses our WeatherBlox Daily Observations layout. Learn more.

Left ArrowRight Arrow

40.92945, -100.16068

Hourly Observations for May 14, 2015

Temp ( °F °C ) Dew Point ( °F °C ) Humidity (%) Winds ( mph kmh ) Pressure ( in mb ) Visibility ( mi km ) Precip ( " mm )
12:15 am 00:15 Cloudy with Light Rain 54 12 52 11.1 94 94 SE 8 13 30 1016 10 16.0934 0.02 0.508
12:35 am 00:35 Cloudy with Rain 54 12 52 11.1 94 94 SE 7 11 30 1016 7 11.26538 0.04 1.016
12:55 am 00:55 Cloudy with Rain 54 12 52 11.1 94 94 ESE 10 17 29.97 1015 10 16.0934 0.07 1.778
1:15 am 01:15 Cloudy with Light Rain 53 11.9 52 11.1 95 95 SE 8 13 29.97 1015 10 16.0934 0.02 0.508
1:35 am 01:35 Cloudy with Light Rain 53 11.8 52 11.1 96 96 ESE 9 15 29.97 1015 10 16.0934 0.03 0.762
1:55 am 01:55 Cloudy with Light Rain 54 12 52 11.2 95 95 ESE 6 9 29.97 1015 10 16.0934 0.04 1.016
2:15 am 02:15 Cloudy with Light Rain 53 11.8 52 11.1 96 96 ESE 8 13 29.94 1014 7 11.26538 0.02 0.508
2:35 am 02:35 Cloudy with Light Rain 53 11.7 52 11.1 96 96 E 5 7 29.94 1014 3 4.82802 0.02 0.508
2:55 am 02:55 Cloudy with Drizzle 53 11.7 52 11.1 96 96 ESE 5 7 29.94 1014 2.5 4.02335 0.02 0.508
3:15 am 03:15 Cloudy with Drizzle 54 12 52 11.3 96 96 ESE 6 9 29.91 1013 2 3.21868 0.01 0.254
3:35 am 03:35 Cloudy with Mist and Fog 54 12 52 11.3 96 96 SSE 6 9 29.94 1014 2.5 4.02335 0.01 0.254
3:55 am 03:55 Cloudy with Mist and Fog 54 12 53 11.4 96 96 SSE 5 7 29.91 1013 3 4.82802 0.01 0.254
4:15 am 04:15 Cloudy with Drizzle 54 12 53 11.5 97 97 S 3 6 29.91 1013 3 4.82802 N/A
4:35 am 04:35 Cloudy with Mist and Fog 54 12 53 11.5 97 97 S 3 6 29.91 1013 2.5 4.02335 N/A
4:55 am 04:55 Cloudy with Mist and Fog 54 12 53 11.5 97 97 S 3 6 29.91 1013 2.5 4.02335 N/A
5:15 am 05:15 Cloudy with Mist and Fog 54 12 53 11.5 97 97 S 3 6 29.91 1013 3 4.82802 N/A
5:35 am 05:35 Cloudy with Mist and Fog 54 12.1 53 11.6 97 97 S 3 6 29.91 1013 4 6.43736 N/A
5:55 am 05:55 Cloudy 54 12.1 53 11.6 97 97 S 3 6 29.91 1013 7 11.26538 N/A
6:15 am 06:15 Cloudy 55 12.5 54 12 97 97 SW 3 6 29.88 1012 7 11.26538 N/A
6:35 am 06:35 Cloudy with Mist and Fog 54 12.1 53 11.6 97 97 N N/A 29.91 1013 5 8.0467 N/A
6:55 am 06:55 Cloudy 54 12.1 53 11.6 97 97 SSW 3 6 29.91 1013 7 11.26538 N/A
7:15 am 07:15 Cloudy 54 12.1 53 11.6 97 97 N N/A 29.91 1013 7 11.26538 N/A
7:35 am 07:35 Cloudy 54 12.3 53 11.8 97 97 N N/A 29.91 1013 10 16.0934 N/A
7:55 am 07:55 Cloudy 55 12.6 54 12.1 97 97 N N/A 29.88 1012 7 11.26538 N/A
8:15 am 08:15 Cloudy 55 12.8 54 12.2 96 96 WSW 5 7 29.88 1012 10 16.0934 N/A
8:35 am 08:35 Cloudy 55 13 54 12.2 95 95 W 6 9 29.88 1012 10 16.0934 N/A
8:55 am 08:55 Cloudy 56 13.5 55 12.7 95 95 WSW 5 7 29.88 1012 10 16.0934 N/A
9:15 am 09:15 Cloudy 57 13.9 55 13 94 94 WSW 6 9 29.88 1012 10 16.0934 N/A
9:35 am 09:35 Cloudy 57 14.1 55 12.9 93 93 W 3 6 29.88 1012 10 16.0934 N/A
9:55 am 09:55 Cloudy 58 14.3 55 13 92 92 WNW 7 11 29.88 1012 10 16.0934 N/A
10:15 am 10:15 Cloudy 59 14.8 56 13.2 90 90 WSW 7 11 29.88 1012 10 16.0934 N/A
10:35 am 10:35 Cloudy 59 15 56 13.3 90 90 W 8 13 29.88 1012 10 16.0934 N/A
10:55 am 10:55 Cloudy 60 15.4 56 13.4 88 88 W 8 13 29.91 1013 10 16.0934 N/A
11:15 am 11:15 Cloudy 60 15.7 56 13.6 87 87 W 9 15 29.88 1012 10 16.0934 N/A
11:35 am 11:35 Cloudy 60 15.8 56 13.4 86 86 W 5 7 29.88 1012 10 16.0934 N/A
11:55 am 11:55 Cloudy 61 16.2 56 13.5 84 84 WSW 5 7 29.88 1012 10 16.0934 N/A
12:15 pm 12:15 Cloudy 62 16.8 57 13.7 82 82 WSW 5 7 29.88 1012 10 16.0934 N/A
12:35 pm 12:35 Mostly Cloudy 64 17.7 57 13.9 79 79 SW 9 15 29.88 1012 10 16.0934 N/A
12:55 pm 12:55 Cloudy 65 18.2 58 14.6 80 80 SSW 8 13 29.88 1012 10 16.0934 N/A
1:15 pm 13:15 Cloudy 65 18.5 58 14.2 76 76 S 3 6 29.83 1010 10 16.0934 N/A
1:35 pm 13:35 Mostly Cloudy 67 19.2 58 14.6 75 75 WSW 5 7 29.83 1010 10 16.0934 N/A
1:55 pm 13:55 Partly Cloudy 67 19.7 59 15.1 75 75 SSW 6 9 29.83 1010 10 16.0934 N/A
2:15 pm 14:15 Partly Cloudy 69 20.8 60 15.5 72 72 N N/A 29.83 1010 10 16.0934 N/A
2:35 pm 14:35 Partly Cloudy 70 21.2 60 15.8 71 71 W 6 9 29.83 1010 10 16.0934 N/A
2:55 pm 14:55 Partly Cloudy 72 22.2 60 15.8 67 67 SSW 5 7 29.83 1010 10 16.0934 N/A
3:15 pm 15:15 Partly Cloudy 72 22.4 59 14.9 63 63 W 7 11 29.8 1009 10 16.0934 N/A
3:35 pm 15:35 Mostly Cloudy 72 22.1 58 14.4 62 62 NNW 7 11 29.8 1009 10 16.0934 N/A
3:55 pm 15:55 Partly Cloudy 74 23.2 59 15.1 60 60 W 3 6 29.77 1008 10 16.0934 N/A
4:15 pm 16:15 Sunny 74 23.6 58 14.7 58 58 WNW 6 9 29.77 1008 10 16.0934 N/A
4:35 pm 16:35 Sunny 75 23.9 58 14.4 55 55 W 5 7 29.77 1008 10 16.0934 N/A
4:55 pm 16:55 Sunny 76 24.2 57 13.8 52 52 WSW 8 13 29.77 1008 10 16.0934 N/A
5:15 pm 17:15 Sunny 76 24.2 56 13.1 50 50 WSW 6 9 29.77 1008 10 16.0934 N/A
5:35 pm 17:35 Sunny 76 24.6 57 13.7 51 51 W 6 9 29.77 1008 10 16.0934 N/A
5:55 pm 17:55 Sunny 75 23.7 57 13.8 54 54 WSW 3 6 29.77 1008 10 16.0934 N/A
6:15 pm 18:15 Sunny 75 24 59 14.8 57 57 SSW 6 9 29.77 1008 10 16.0934 N/A
6:35 pm 18:35 Sunny 75 23.9 58 14.3 55 55 SW 5 7 29.77 1008 10 16.0934 N/A
6:55 pm 18:55 Sunny 74 23.2 61 15.9 64 64 S 3 6 29.77 1008 10 16.0934 N/A
7:15 pm 19:15 Sunny 75 24 59 14.8 57 57 S 3 6 29.74 1007 10 16.0934 N/A
7:40 pm 19:40 Sunny 73 22.7 59 15.2 63 63 S 5 7 29.74 1007 10 16.0934 N/A
7:55 pm 19:55 Sunny 71 21.7 60 15.3 67 67 S 6 9 29.8 1009 10 16.0934 N/A
8:15 pm 20:15 Sunny 69 20.7 59 15.1 70 70 S 6 9 29.8 1009 10 16.0934 N/A
8:35 pm 20:35 Sunny 68 20.2 58 14.4 69 69 S 6 9 29.8 1009 10 16.0934 N/A
8:55 pm 20:55 Clear 67 19.2 58 14.4 74 74 S 7 11 29.8 1009 10 16.0934 N/A
9:15 pm 21:15 Clear 64 18 57 14 78 78 S 7 11 29.83 1010 10 16.0934 N/A
9:35 pm 21:35 Clear 63 17.2 57 13.8 81 81 S 6 9 29.83 1010 10 16.0934 N/A
9:55 pm 21:55 Clear 63 17.2 57 14.1 82 82 S 5 7 29.83 1010 10 16.0934 N/A
10:15 pm 22:15 Clear 63 17 56 13.6 81 81 S 5 7 29.83 1010 10 16.0934 N/A
10:35 pm 22:35 Clear 62 16.5 56 13.6 83 83 SSE 6 9 29.85 1011 10 16.0934 N/A
10:55 pm 22:55 Clear 61 16.1 56 13.6 85 85 SSE 7 11 29.85 1011 10 16.0934 N/A
11:15 pm 23:15 Clear 61 16.1 57 13.9 87 87 SSE 7 11 29.85 1011 10 16.0934 N/A
11:35 pm 23:35 Clear 61 15.9 57 13.8 87 87 S 7 11 29.85 1011 10 16.0934 N/A
11:55 pm 23:55 Clear 60 15.7 57 13.9 89 89 S 8 13 29.85 1011 10 16.0934 N/A

Powered by AerisWeather